Theta_e
310 310 310 310 310 310 310 310 310 310 310 310 310 310 310 311 311 311 311 311 312 312 312 312 312 312 312 312 312 313 313 314 314 314 315 316 315 314 314 314 314 314 314 313 314 315 315 316 317 317 317 318 318 320 322 320 320 321 323 324 323 323 323 322 321 321 320 319 318 317 318 317 317 318 318 318 318 318 317 318 317 318 318 318 318 318 318 318
310 310 310 310 310 310 310 310 310 310 310 311 311 310 311 311 311 311 311 311 311 311 311 312 312 312 312 312 312 313 314 315 314 315 316 316 314 314 314 314 314 314 314 314 314 315 316 317 317 317 317 319 320 320 321 321 321 321 323 324 323 323 322 321 320 320 321 320 318 317 317 317 317 317 318 318 317 317 317 317 317 317 317 318 318 319 319 319
310 310 310 310 310 310 310 310 310 311 310 311 310 311 311 311 311 311 311 311 311 311 311 311 312 312 312 312 313 313 314 315 315 318 317 314 314 314 314 315 314 314 314 314 315 316 317 317 317 318 317 319 320 321 322 322 322 321 322 322 322 322 321 320 319 319 320 319 318 318 317 316 316 316 317 317 317 318 317 317 317 317 317 318 318 318 318 319
310 310 310 310 310 310 310 310 310 310 310 310 310 310 311 311 311 311 311 311 311 312 312 312 312 312 313 313 313 314 314 315 317 317 315 314 315 315 315 315 315 314 314 314 315 316 317 316 316 317 317 318 319 321 322 322 322 321 321 321 321 320 320 318 318 318 319 319 318 318 317 316 316 317 317 318 318 318 318 317 317 317 317 317 317 317 317 318
310 310 310 310 310 310 310 310 310 310 311 311 311 311 311 311 312 312 312 312 312 313 313 313 313 313 314 314 314 314 314 316 318 316 314 314 315 315 315 315 315 314 314 314 314 315 316 315 316 316 317 317 317 319 320 320 321 320 320 320 321 320 319 318 318 318 319 319 318 318 317 317 316 317 317 318 318 317 317 317 317 317 317 317 317 317 317 317
311 311 311 311 311 312 311 312 312 312 312 312 312 312 312 313 313 313 313 314 314 314 314 314 314 314 315 315 316 316 315 316 318 316 315 315 315 315 315 315 315 314 314 314 314 315 315 315 316 316 317 317 317 317 318 319 320 321 320 320 319 318 317 317 317 318 319 318 318 318 317 317 316 316 316 317 317 317 317 317 317 317 318 318 318 317 317 317
313 313 313 313 313 313 313 313 314 314 314 314 314 314 315 315 315 315 316 316 316 316 317 317 317 317 318 318 318 318 318 317 317 317 316 316 315 315 314 314 314 314 314 314 315 315 315 316 316 316 316 316 317 317 317 317 318 320 320 319 318 318 317 317 317 318 318 318 318 318 317 317 316 316 316 316 317 317 317 316 316 317 317 317 318 317 317 317
317 317 317 317 317 317 317 317 317 318 318 318 318 318 318 318 318 318 318 318 318 318 318 318 318 317 318 317 317 319 320 319 318 318 317 316 315 315 314 314 314 314 314 315 315 316 316 316 316 316 316 316 316 317 317 317 317 318 318 318 318 318 318 317 318 318 318 318 317 317 317 317 317 317 316 316 316 316 316 316 316 317 317 317 317 317 317 317
319 319 319 319 319 319 319 319 319 319 319 319 318 318 318 318 317 317 317 317 316 316 316 315 315 315 314 313 314 318 320 321 321 320 318 316 315 315 315 315 314 314 315 315 315 316 316 316 316 317 316 317 317 317 316 317 317 317 317 317 316 316 317 317 316 316 316 316 316 316 317 318 317 316 316 316 316 316 317 317 317 317 317 317 317 317 316 316
317 317 317 317 317 317 317 317 317 317 317 317 316 316 316 315 315 315 315 315 315 315 315 315 314 314 314 313 314 318 320 322 321 320 318 317 317 316 314 315 315 314 314 315 316 316 316 316 317 317 317 317 316 316 316 316 316 317 316 316 315 315 315 315 315 315 315 315 315 315 316 317 317 316 316 316 316 316 317 317 317 316 316 316 316 316 316 316
316 316 316 315 315 315 315 315 315 315 315 315 315 315 315 315 315 315 315 315 316 316 316 316 316 316 316 314 314 317 319 320 319 319 318 317 317 316 316 315 315 315 314 315 317 316 316 316 317 317 316 316 315 315 316 316 316 316 315 314 315 315 315 315 315 315 315 315 316 316 316 316 316 316 316 316 316 316 316 317 317 317 316 316 316 316 316 316
315 315 315 315 314 314 314 314 314 314 314 314 314 314 314 314 315 315 315 316 316 316 317 318 318 318 318 316 315 317 318 318 317 317 317 316 315 316 317 316 315 314 314 316 317 316 316 316 316 316 315 315 315 315 315 315 315 315 314 314 314 314 315 315 315 316 315 316 316 316 316 316 316 316 316 316 316 317 316 317 317 316 316 317 316 316 316 316
314 314 314 314 314 313 313 313 313 313 313 313 314 314 314 315 315 316 316 317 318 318 319 319 320 321 319 317 317 318 317 317 316 316 316 315 315 316 317 316 315 314 314 315 317 317 317 316 316 315 315 315 315 315 315 315 315 314 314 314 314 315 315 316 316 317 316 316 316 315 315 316 316 316 316 317 317 317 317 317 316 316 316 316 316 316 316 316
313 313 313 313 313 313 313 312 312 313 313 314 314 315 316 317 318 319 319 320 320 320 320 321 321 320 318 317 319 319 317 317 316 316 316 315 315 315 315 315 315 314 314 314 315 316 317 316 315 314 314 315 315 315 314 315 315 314 315 315 316 316 316 317 317 317 316 315 314 315 315 315 316 317 317 317 317 317 317 317 316 316 316 316 316 316 316 316
312 312 313 313 312 312 312 312 313 314 315 316 317 319 320 321 321 322 322 322 321 321 321 321 320 319 317 318 319 318 317 316 316 316 316 315 315 315 315 314 314 314 313 314 314 314 315 315 314 314 315 315 315 315 314 314 315 315 315 316 318 318 317 318 318 316 316 315 314 315 316 315 316 317 318 318 317 317 316 316 316 316 316 316 316 316 316 316
313 313 312 312 312 312 313 314 315 317 319 320 321 322 323 323 323 323 323 322 322 322 321 320 319 317 317 318 318 317 317 317 317 317 316 315 314 314 314 314 314 314 313 313 313 313 313 313 313 314 315 315 315 315 315 316 316 317 317 316 319 319 318 320 319 316 316 315 314 315 316 316 316 317 317 317 317 316 316 315 316 316 316 316 316 316 316 316
313 312 312 312 313 314 315 316 318 320 322 323 323 324 324 323 323 323 322 322 322 321 320 320 318 316 317 318 318 318 317 317 316 316 315 314 314 314 314 314 315 314 313 313 313 312 313 313 314 314 314 314 314 315 317 318 318 319 319 319 319 320 319 319 319 318 317 317 316 315 315 315 316 316 316 316 316 316 316 316 315 316 316 316 316 316 316 316
312 312 313 314 315 316 318 319 320 322 323 324 324 324 323 323 323 322 322 322 321 320 320 318 317 318 320 319 318 318 317 316 315 315 314 314 314 315 316 316 315 314 313 313 313 312 313 313 314 315 315 314 313 315 317 319 319 320 320 320 319 319 319 318 318 319 319 318 318 318 317 317 318 317 316 317 317 316 316 316 316 316 316 316 316 316 317 317
313 314 315 316 317 319 321 322 322 323 324 324 323 323 323 324 324 323 322 321 320 321 322 319 317 320 322 321 321 320 319 317 316 317 317 317 317 317 317 315 315 314 314 315 315 313 313 314 316 317 317 316 315 315 316 317 318 318 319 319 319 318 318 318 318 318 319 318 318 319 318 318 318 317 316 316 316 316 316 316 316 316 316 316 316 316 317 316
315 316 316 318 319 320 322 323 323 324 323 323 323 323 324 325 324 323 322 320 320 321 322 321 320 321 322 322 322 321 320 320 319 318 318 317 317 317 316 315 315 314 315 317 317 314 314 317 318 318 317 317 317 317 316 317 318 318 319 319 319 319 318 318 318 318 318 319 318 319 319 317 317 317 316 316 316 315 315 316 316 316 316 316 317 317 315 314
316 316 318 319 320 321 322 323 323 323 323 323 324 324 324 324 323 322 321 321 322 322 322 322 322 322 322 322 322 321 321 320 318 317 317 316 316 316 315 315 315 316 316 318 317 314 315 318 319 318 317 317 318 318 319 319 319 319 320 319 319 319 318 318 318 319 318 318 318 318 318 316 316 316 316 316 316 316 316 316 316 316 317 316 316 315 314 313
318 319 320 320 321 321 322 322 323 323 324 324 324 324 323 323 322 321 320 320 322 323 323 322 323 323 323 323 322 321 320 319 318 317 317 316 316 316 316 315 316 317 318 318 318 317 318 319 318 318 318 318 318 319 319 319 320 320 320 320 319 319 319 318 319 319 317 317 317 317 317 316 316 316 316 316 316 316 317 316 316 316 316 315 314 314 313 312
322 322 322 322 322 322 323 323 323 323 324 324 325 324 323 323 322 322 320 317 319 322 322 322 322 323 323 322 321 320 319 319 320 319 318 317 316 317 317 316 316 318 319 318 319 320 320 319 318 317 318 319 319 319 319 319 320 320 320 320 319 319 320 320 320 318 317 316 317 317 317 317 316 316 317 317 316 317 317 316 315 315 314 314 313 312 311 310
324 324 323 323 323 323 324 323 323 324 324 324 325 324 324 323 322 322 319 317 319 321 321 321 321 321 321 320 319 318 317 318 319 319 318 317 316 316 317 317 317 318 319 318 318 320 321 320 319 318 319 320 319 320 321 320 320 321 321 321 320 320 320 320 318 317 316 317 318 318 319 319 318 319 319 318 318 317 315 313 313 313 313 312 311 310 310 309
324 324 324 324 324 324 324 324 324 324 324 324 324 324 323 322 322 320 317 317 320 320 320 320 319 318 317 317 316 315 315 316 317 317 316 317 317 316 316 317 318 318 319 319 319 320 319 319 319 319 319 320 320 320 320 321 320 320 322 322 321 320 320 320 320 319 318 318 319 318 320 322 320 321 321 319 319 317 313 312 312 312 311 311 311 310 308 307
324 324 324 324 324 324 324 324 325 325 324 325 324 323 322 321 321 318 315 318 322 321 321 319 317 316 314 314 314 314 316 316 315 316 315 316 316 315 315 317 317 318 318 318 319 320 319 318 319 320 320 320 321 320 320 320 320 320 322 323 322 319 320 320 320 320 319 319 318 317 320 320 319 320 320 319 320 316 313 312 311 311 311 310 309 309 308 306
325 325 325 325 324 324 324 324 325 325 324 325 324 323 322 321 320 317 316 322 325 322 320 317 316 316 313 312 313 315 318 317 314 314 314 315 315 314 315 316 317 317 315 317 321 321 318 318 320 319 319 322 322 320 321 320 320 321 322 321 320 319 319 319 318 319 319 317 317 317 319 319 319 320 319 319 319 315 312 312 311 310 310 309 308 307 306 306
325 325 325 325 325 324 324 324 325 324 324 324 323 322 321 320 319 316 319 326 327 321 317 314 314 314 312 312 312 313 315 314 314 314 313 314 314 313 314 315 316 317 314 317 322 320 318 320 321 320 320 321 320 320 322 321 321 322 320 317 317 317 317 317 317 318 318 317 318 319 320 321 321 320 319 320 319 315 313 312 311 310 309 308 307 306 305 305
325 325 325 325 325 324 324 323 324 323 323 322 321 321 320 319 318 316 320 324 323 319 317 314 313 313 311 311 312 312 311 312 314 313 311 313 314 312 313 314 313 315 315 316 320 319 318 318 318 320 321 320 319 320 323 324 321 318 317 316 316 317 317 317 317 317 317 318 319 320 321 321 324 323 321 321 317 314 313 312 310 309 308 307 306 305 304 304
325 324 324 324 324 323 322 321 321 321 321 319 320 320 319 319 319 320 323 323 319 318 315 313 314 314 312 312 313 312 311 312 312 311 311 312 313 312 312 312 311 314 316 316 318 318 316 313 313 317 319 318 318 318 319 321 318 315 316 317 317 318 319 318 318 317 318 320 320 320 320 320 325 328 321 319 317 314 312 312 310 308 306 305 305 304 303 302
324 323 323 323 321 320 319 319 319 319 318 318 319 319 319 320 321 322 324 320 317 318 316 315 315 313 313 315 316 314 312 313 312 312 313 312 313 312 312 314 313 315 317 318 319 318 316 314 314 315 315 315 318 318 315 314 314 314 315 316 317 321 319 317 318 317 319 323 322 322 321 319 323 326 318 316 316 314 313 311 309 307 305 304 303 302 302 301
323 322 322 320 319 318 318 318 318 317 318 318 319 319 320 322 322 322 322 318 318 321 319 319 317 315 315 317 318 316 315 315 313 313 315 314 314 314 314 317 318 319 321 322 323 322 320 319 316 315 314 313 317 318 316 314 313 314 315 314 317 321 321 321 322 321 322 323 320 321 323 321 321 322 318 316 314 312 311 310 307 305 304 303 302 301 300 300
321 320 320 318 317 317 317 317 317 316 318 318 318 319 320 322 322 322 321 319 321 322 320 320 318 317 318 318 319 319 319 318 314 313 316 317 318 318 317 318 320 322 322 322 322 322 322 322 318 317 316 314 316 318 318 319 315 313 316 318 320 321 321 321 322 322 323 321 318 318 320 321 321 319 317 313 309 308 307 306 305 303 302 302 300 300 299 300
319 318 317 317 316 316 316 316 316 316 317 317 318 320 320 320 321 322 321 321 321 320 319 319 317 317 318 319 320 320 320 320 317 315 318 319 320 321 320 319 320 321 320 321 321 320 321 321 319 320 318 315 316 316 319 321 316 314 316 319 321 322 320 319 319 321 323 322 318 316 318 322 321 316 312 309 306 306 305 303 303 302 301 300 299 299 299 300
317 316 316 316 316 316 316 316 315 315 316 316 319 320 318 318 319 319 320 320 319 319 319 318 318 318 319 319 320 320 320 321 320 319 320 320 320 321 320 319 319 320 320 321 321 318 319 319 319 318 315 315 316 316 317 319 319 317 317 318 320 321 320 320 320 320 321 321 318 317 320 321 317 313 309 307 305 304 304 303 303 302 301 300 299 299 299 299
315 315 315 315 315 316 315 315 315 315 316 317 318 318 316 316 318 318 319 318 318 318 319 320 320 320 320 319 320 320 319 319 320 321 321 320 319 319 318 318 319 320 321 320 318 316 316 319 320 318 315 313 314 315 315 317 319 318 318 320 320 319 318 320 321 319 318 319 317 316 318 317 314 313 308 306 305 304 303 303 302 301 301 300 299 298 298 299
311 311 311 312 313 313 313 314 314 315 317 318 317 316 315 315 316 315 316 317 317 318 319 320 320 319 319 319 319 321 320 319 320 320 320 319 319 318 317 317 317 318 318 316 318 319 318 319 320 320 319 314 309 311 313 313 315 318 319 319 318 319 319 318 318 318 318 317 315 314 316 314 315 315 310 306 306 304 304 303 301 301 300 299 299 299 299 300
307 307 307 308 309 309 309 311 312 314 317 318 316 315 314 314 314 314 315 316 316 317 318 318 317 316 316 316 317 320 320 319 319 320 319 318 318 317 316 317 315 314 313 313 316 319 318 318 319 318 320 316 309 311 316 313 313 316 316 315 315 319 320 318 317 318 318 317 315 315 316 314 315 317 312 308 306 305 304 303 302 301 300 299 299 299 300 300
305 305 305 306 307 306 307 309 311 313 316 316 314 314 314 313 314 313 315 315 316 317 317 317 316 315 315 315 316 319 319 318 318 318 318 317 317 316 316 317 315 312 311 313 315 316 316 318 319 317 317 317 313 314 317 316 314 313 312 314 315 316 318 317 317 318 318 317 316 316 316 316 316 315 312 308 306 305 305 304 303 302 301 300 299 299 299 298
304 305 306 307 307 306 305 308 312 314 315 315 313 313 313 314 314 314 314 315 316 316 316 316 316 315 315 315 315 316 318 318 317 317 317 315 314 316 315 316 316 314 313 313 314 315 315 316 317 317 316 316 316 316 317 317 317 315 313 314 315 315 316 317 316 316 316 316 316 315 315 317 315 311 309 308 308 308 306 305 304 302 301 300 299 299 298 297
303 305 308 308 307 306 306 309 313 314 314 314 312 312 312 313 315 315 315 315 315 315 315 316 316 316 315 316 315 314 315 316 316 315 316 314 313 314 314 313 315 315 314 314 315 316 316 315 316 316 316 316 316 316 316 316 317 317 316 316 315 315 316 316 315 315 315 315 316 315 315 316 313 309 309 308 308 307 306 304 303 302 301 300 299 298 298 297
303 305 308 308 307 305 307 310 312 312 313 313 312 312 312 313 315 315 315 315 315 315 315 315 316 316 316 316 315 315 314 314 315 315 316 314 313 314 313 311 312 313 313 313 315 315 314 314 314 314 314 314 313 313 312 313 315 317 317 317 317 316 315 315 315 315 315 316 316 315 315 315 311 307 308 308 306 306 305 304 303 301 301 300 298 298 297 296
304 306 308 308 306 305 308 310 310 311 312 312 312 312 313 314 314 315 314 315 315 315 315 315 315 315 315 315 314 314 314 313 314 314 314 314 313 312 311 311 311 312 312 313 315 313 311 313 314 313 313 312 313 313 312 313 315 316 316 315 315 315 315 314 314 313 313 313 314 314 314 315 311 307 306 306 304 304 304 304 303 301 300 299 298 298 297 297
304 305 307 307 305 306 309 309 309 310 310 311 311 312 312 313 314 314 314 314 314 314 314 314 314 314 314 313 313 314 313 313 313 313 314 315 313 309 308 310 310 311 312 313 313 312 312 313 313 313 313 313 313 312 313 314 314 313 312 312 311 312 312 312 312 311 311 312 313 313 313 314 313 308 306 305 304 303 303 302 302 300 300 299 299 298 298 297
304 304 306 306 306 307 309 309 309 310 310 310 311 311 311 312 313 313 313 313 313 312 312 312 312 312 313 313 314 314 314 314 314 314 315 315 313 308 307 309 310 309 308 308 309 310 312 312 312 312 312 311 311 311 312 313 312 309 309 310 310 310 310 310 310 311 311 311 310 310 310 310 310 308 307 306 304 303 301 301 300 299 299 298 298 297 297 296
303 303 304 305 306 308 309 309 309 310 310 311 310 310 311 311 311 312 312 312 312 311 311 311 311 312 313 313 313 314 314 314 314 314 314 314 313 309 306 307 307 306 305 306 307 309 310 310 311 311 311 310 310 310 310 310 309 308 308 308 308 308 308 309 309 309 309 309 308 308 308 308 307 307 307 306 305 304 302 300 299 298 298 297 297 296 296 295
302 302 304 305 305 307 308 308 309 309 310 311 310 310 310 310 310 311 312 312 311 311 311 310 311 312 312 312 312 312 312 312 313 312 312 312 312 308 305 305 305 305 304 305 306 307 308 308 309 309 309 309 309 309 309 309 308 308 308 308 307 308 307 308 307 307 308 307 306 306 306 306 306 305 305 305 304 304 302 300 299 298 298 297 297 296 296 295
300 300 303 305 305 306 307 307 308 308 309 310 310 309 309 309 309 310 311 311 310 310 310 310 310 311 311 311 311 310 310 310 310 310 311 312 311 308 306 305 304 303 304 304 305 305 306 307 307 307 307 307 307 307 306 306 306 306 306 306 306 306 306 305 305 306 306 306 305 305 305 305 304 304 304 304 303 302 301 299 298 298 297 297 296 296 296 295
299 299 300 302 303 305 306 307 308 307 308 308 309 309 309 309 308 308 310 310 309 309 309 309 309 310 310 311 310 310 309 309 309 310 310 309 309 307 307 306 304 302 303 303 304 304 304 305 305 305 305 305 305 305 305 305 305 304 304 305 304 304 304 304 304 304 305 305 304 304 304 304 303 303 303 301 300 299 298 297 297 296 296 296 295 295 294 294
298 299 299 300 302 302 304 306 307 307 307 307 308 308 308 308 308 308 309 309 309 309 309 309 310 310 309 310 310 310 309 308 309 309 307 306 307 306 306 306 304 302 302 303 303 303 304 305 305 304 304 304 303 304 304 305 304 303 303 303 303 303 303 303 302 303 303 302 302 302 302 302 302 301 300 299 298 297 296 296 296 295 294 294 293 293 293 293
297 298 298 299 301 301 302 304 306 306 306 306 307 307 307 307 307 307 307 307 308 308 308 308 308 307 306 307 308 307 306 305 305 305 304 304 305 304 304 304 303 302 302 302 303 303 304 304 303 302 302 302 301 301 301 301 300 300 300 300 300 300 300 300 301 301 301 301 301 301 301 301 301 299 298 297 295 295 295 295 294 294 293 293 292 292 292 292
296 296 296 297 299 301 302 303 305 305 305 305 306 306 306 306 306 306 306 306 305 305 306 307 306 305 305 305 305 304 303 302 302 302 302 301 301 301 301 302 302 302 302 302 302 303 303 302 302 302 301 301 300 299 299 299 300 300 300 300 299 299 300 300 300 300 300 300 301 300 301 301 300 298 297 295 293 293 294 294 293 293 293 293 292 292 292 292
Wind_Speed
2 2 2 2 2 2 3 3 3 3 3 3 4 4 4 4 4 5 5 6 6 7 8 9 10 10 11 12 13 14 15 16 17 19 21 18 12 9 6 4 5 5 6 5 5 4 4 4 3 3 3 5 5 4 6 5 4 2 1 3 4 4 5 4 4 5 5 5 6 8 11 8 7 8 4 4 8 12 16 21 20 17 18 23 25 23 24 23
4 4 4 4 4 4 4 5 5 5 5 5 5 5 6 6 6 7 7 8 8 9 10 11 11 12 13 13 13 15 16 17 20 20 17 11 3 1 2 3 5 4 6 5 4 1 2 3 4 6 5 6 6 5 6 5 5 5 2 3 4 4 6 9 9 8 7 6 9 12 13 10 9 12 9 5 7 10 12 18 21 20 20 20 20 21 25 23
5 5 5 6 6 6 6 7 7 7 7 7 7 7 8 8 8 8 9 9 10 11 11 12 13 13 14 14 15 15 16 20 20 12 6 1 6 5 3 7 7 5 5 4 3 2 4 5 4 6 7 8 8 6 5 5 5 8 6 3 5 6 8 11 13 13 12 12 11 11 12 12 13 16 13 8 9 8 9 15 17 19 20 17 17 17 18 19
6 7 7 7 7 8 8 8 8 8 8 9 9 9 9 9 9 10 10 11 11 12 13 13 14 14 15 15 16 15 18 20 10 2 1 6 5 5 9 12 12 7 4 4 3 5 6 8 5 6 8 8 10 8 6 7 6 7 7 4 6 8 8 12 18 18 15 12 10 11 13 13 15 16 13 10 8 5 11 17 17 21 24 22 23 21 18 17
8 8 8 8 8 9 9 9 9 9 10 10 10 10 10 10 11 11 12 12 13 14 14 15 16 16 16 16 16 15 15 10 1 3 3 4 4 13 13 15 14 9 3 3 3 6 7 7 6 7 8 7 10 9 8 13 11 5 7 9 11 11 9 13 19 16 12 10 11 13 11 13 16 16 15 11 8 8 13 20 22 26 29 28 28 25 24 22
9 9 9 9 9 10 10 10 11 11 11 11 12 12 12 12 13 13 14 14 15 16 16 17 17 17 17 17 16 14 9 4 3 3 5 8 15 18 15 15 13 8 4 4 4 5 5 6 7 9 9 7 8 8 9 14 13 6 7 11 14 14 12 16 20 16 12 9 10 13 13 17 17 16 20 16 15 19 21 24 27 30 30 30 29 26 24 23
10 10 10 10 11 11 11 12 12 12 12 13 13 13 14 14 14 14 15 15 16 16 17 17 18 17 17 16 15 12 7 11 14 11 13 17 18 16 13 11 8 5 6 6 6 6 5 6 9 10 9 7 8 10 11 14 12 7 6 9 15 18 18 20 21 17 14 12 14 16 16 17 14 14 21 20 21 27 28 28 30 30 29 29 28 26 23 23
11 11 11 11 12 12 12 12 13 13 13 13 14 14 14 14 14 15 15 15 15 15 16 16 16 16 15 14 13 9 8 15 18 15 16 16 13 10 8 6 5 6 7 8 8 7 7 8 10 11 8 7 9 10 10 10 8 8 8 9 13 16 17 18 18 18 17 17 20 17 14 17 17 17 22 24 27 29 27 26 26 25 25 24 24 24 21 22
12 12 12 12 12 13 13 13 13 14 14 14 14 14 14 14 14 14 13 14 14 14 14 14 15 15 14 13 9 6 10 15 15 14 13 11 9 8 7 7 6 6 7 8 9 8 9 9 9 7 6 9 10 10 11 8 5 7 8 9 12 12 16 19 20 22 22 22 21 14 11 18 19 15 18 23 22 21 18 17 18 18 20 20 19 20 20 22
13 13 13 13 13 13 13 13 14 14 14 14 13 13 13 13 13 13 13 13 12 13 13 13 14 13 13 12 5 4 9 10 11 11 10 10 11 11 11 10 8 7 8 9 10 9 10 9 10 9 9 10 9 10 11 9 8 9 10 12 14 16 20 23 22 26 25 23 24 16 9 16 18 9 11 20 18 17 18 17 19 19 20 20 20 21 21 23
13 13 13 13 12 13 13 13 13 13 13 13 13 13 12 12 12 12 12 12 12 12 12 12 13 13 14 12 7 8 10 8 9 12 13 15 16 14 13 13 11 9 8 9 10 11 11 10 11 9 7 5 6 11 11 8 9 9 9 10 15 18 22 24 21 25 22 15 19 14 6 13 15 7 14 25 22 20 22 20 20 19 20 22 23 25 24 24
13 13 13 12 12 12 12 12 12 12 13 12 12 12 11 12 11 12 12 12 13 12 12 12 12 13 13 13 14 15 14 13 14 15 17 18 18 16 15 13 11 10 10 10 10 12 13 13 13 9 7 6 6 8 7 6 8 8 6 6 13 14 15 19 19 24 20 9 10 6 1 7 8 9 22 28 22 20 20 19 18 19 23 26 26 27 27 27
12 12 12 11 11 10 11 11 11 11 12 11 12 12 11 12 11 11 12 11 12 12 12 12 12 14 12 12 17 17 14 14 15 16 17 17 18 17 15 12 11 11 11 12 13 14 14 15 14 11 12 11 8 7 8 11 11 8 7 5 9 9 7 14 16 16 12 5 9 7 0 5 4 13 21 19 15 15 17 17 19 22 28 32 32 31 29 29
11 11 11 10 10 9 9 9 10 10 10 11 11 11 11 11 11 11 12 11 12 12 12 12 12 13 11 12 17 17 14 13 13 14 15 16 17 16 14 12 10 10 11 13 15 15 14 14 13 12 12 12 12 12 11 10 8 7 8 5 5 5 3 11 10 5 3 5 12 8 2 5 5 13 16 14 13 16 19 20 23 28 32 36 34 30 28 28
10 10 10 10 9 8 8 8 9 9 10 10 11 11 11 11 11 11 11 11 11 12 12 12 12 10 9 14 17 14 11 10 11 11 10 13 14 12 11 9 8 8 9 13 15 14 14 13 10 8 9 10 11 10 7 5 4 4 6 4 4 4 4 9 7 5 3 3 11 8 2 6 6 9 13 16 18 20 23 24 28 32 33 35 34 28 26 25
10 10 9 9 8 7 7 7 8 9 10 10 10 11 11 11 11 11 12 12 12 12 10 10 10 7 6 10 12 10 7 8 8 8 9 10 10 7 6 5 4 5 7 10 12 13 12 10 8 6 6 6 5 4 4 3 4 4 5 4 5 5 4 5 2 7 6 3 7 7 3 5 5 8 15 20 22 22 22 26 31 32 32 32 31 28 26 25
10 9 8 7 7 7 7 8 8 9 10 10 11 10 11 11 11 12 12 11 11 11 9 9 7 6 8 11 11 9 8 8 7 6 7 6 6 5 3 4 4 4 4 6 8 8 8 7 5 4 5 5 3 3 3 3 4 3 4 5 5 5 6 4 2 2 2 3 4 7 6 7 7 9 16 19 22 22 22 26 27 27 29 30 29 28 25 20
9 9 8 7 6 6 7 8 8 9 9 10 10 9 10 10 10 12 12 11 11 9 8 8 5 3 6 9 9 9 9 8 6 6 7 6 6 6 5 4 4 2 2 3 5 6 5 6 5 2 3 4 4 3 3 5 5 5 5 4 5 6 6 6 5 8 7 5 7 8 8 9 7 6 12 19 23 24 24 25 25 26 27 30 31 25 17 12
9 8 7 7 7 6 7 8 8 8 8 8 8 9 8 8 8 10 8 7 7 5 5 5 7 4 6 9 10 10 13 11 9 10 11 10 8 6 5 4 4 5 5 3 5 9 8 4 4 2 3 5 6 8 8 9 8 9 9 7 7 7 6 8 8 8 9 9 8 8 9 9 9 8 11 20 25 26 26 23 24 25 24 26 22 12 15 18
9 9 8 8 7 7 7 7 8 8 7 7 8 8 7 7 7 4 4 6 8 9 12 12 13 15 17 18 14 13 15 13 11 12 9 6 3 4 5 6 7 6 4 3 5 9 9 4 3 5 6 10 11 11 11 10 10 11 9 7 8 6 6 8 9 9 8 7 6 6 8 8 10 10 14 24 25 21 19 18 24 25 19 14 8 16 21 24
10 9 9 9 8 7 8 8 8 7 7 6 7 8 6 6 5 3 7 12 14 15 20 22 22 22 24 21 17 18 16 11 10 9 5 2 4 5 7 9 6 4 7 9 4 4 6 4 5 9 11 13 12 10 10 10 10 9 7 6 6 5 8 8 10 11 5 3 4 5 8 7 9 13 18 23 17 12 16 18 19 13 7 12 19 23 24 27
10 10 9 9 9 9 9 8 9 7 6 6 5 6 4 5 5 6 9 11 16 18 21 25 26 27 26 21 19 21 15 9 8 8 7 5 7 6 9 10 5 3 7 8 4 3 3 5 10 14 12 11 10 9 9 10 9 7 5 5 5 5 7 7 8 7 3 2 4 7 7 6 11 16 18 17 11 14 20 12 5 15 22 23 24 25 26 26
11 11 10 10 9 9 8 6 7 7 6 5 4 3 5 6 7 9 9 7 15 20 19 21 23 24 21 16 16 18 14 10 11 13 11 8 11 10 9 8 6 5 5 6 5 3 4 6 11 13 10 9 9 8 8 8 6 4 3 4 5 5 5 5 4 6 7 4 6 8 6 5 11 15 14 14 14 14 6 14 26 28 27 25 26 26 25 25
12 12 11 11 9 8 7 5 5 5 5 4 4 4 6 8 8 10 9 6 9 14 16 17 16 16 14 12 13 12 10 9 8 10 12 11 11 9 8 9 7 5 6 7 8 7 6 9 10 6 5 7 6 7 7 5 4 4 5 5 6 6 6 5 4 7 6 6 5 5 4 5 7 7 6 7 13 7 13 26 27 26 26 26 26 25 25 25
14 13 11 10 9 7 6 5 5 3 3 4 4 4 5 7 9 10 7 5 5 7 10 10 8 8 9 11 11 7 6 6 4 8 14 13 10 6 4 8 7 4 7 9 9 7 8 9 8 4 3 4 4 5 6 3 3 5 5 6 6 5 5 5 6 6 4 4 2 3 3 4 4 6 6 5 9 1 16 20 18 22 24 24 25 23 24 25
16 14 11 10 8 7 7 7 5 2 2 3 3 3 5 6 8 9 5 3 3 3 3 3 4 4 4 5 8 6 3 4 6 9 12 11 11 7 1 4 5 3 3 4 3 3 4 1 2 1 2 2 3 6 6 4 3 4 3 2 2 2 3 4 5 3 1 4 4 1 2 5 4 4 8 10 7 4 13 11 12 18 21 23 24 22 22 23
20 16 12 11 9 8 9 7 6 4 2 3 3 4 5 5 7 7 3 2 3 2 3 3 2 3 3 3 7 6 1 3 5 7 9 8 10 8 4 3 3 3 1 1 1 1 3 3 4 2 2 3 4 5 6 6 4 3 2 1 2 2 3 3 2 2 3 4 5 4 4 5 5 5 10 13 6 8 11 8 9 14 21 24 22 21 22 22
23 19 16 15 12 10 10 8 7 6 4 3 4 4 5 4 5 4 2 3 2 2 2 2 2 3 3 3 7 4 0 4 3 3 9 9 9 7 5 4 2 2 4 3 2 0 1 4 3 4 4 4 5 5 5 7 5 2 1 1 2 1 2 2 2 4 4 4 5 5 6 3 5 5 9 9 4 9 8 7 7 11 19 23 21 21 20 21
25 22 20 18 13 9 7 7 7 6 5 3 3 4 3 3 3 3 1 2 1 2 1 1 1 3 3 2 5 4 1 3 1 1 7 9 10 6 3 4 4 3 4 6 5 3 0 3 4 5 5 4 5 3 2 3 3 2 1 1 1 1 3 3 4 3 3 4 5 5 6 3 4 6 5 1 5 7 6 6 7 11 18 20 20 20 18 20
22 20 17 14 10 8 6 5 5 4 4 3 3 2 2 0 2 0 3 2 1 2 2 3 2 3 5 3 4 6 4 2 3 5 5 4 8 7 3 3 3 3 2 3 5 8 3 3 1 4 6 4 3 2 3 3 2 1 0 2 2 4 4 3 3 2 1 3 6 8 10 7 3 5 2 2 5 9 8 6 7 12 17 18 18 19 18 19
16 14 12 11 9 8 6 5 4 3 2 0 0 0 0 1 1 3 4 1 1 0 3 3 2 3 6 3 1 5 5 3 6 7 3 2 5 5 3 2 0 1 2 3 5 8 4 2 1 5 9 5 4 2 2 4 2 1 2 2 4 4 1 1 1 1 1 4 5 5 7 10 4 3 1 3 6 8 9 8 8 10 15 18 17 17 19 19
12 11 11 10 9 9 7 6 4 3 2 3 2 1 2 0 3 5 2 2 0 2 1 1 3 3 5 3 1 3 3 3 8 7 4 4 4 4 4 3 2 1 2 2 2 3 2 5 5 3 6 6 4 1 1 2 2 3 2 1 2 3 1 0 1 1 3 5 3 4 3 5 5 4 5 2 8 8 8 11 12 13 16 18 16 17 19 20
12 12 12 11 10 9 8 6 5 4 4 4 4 4 3 2 4 3 4 3 1 2 2 2 1 2 2 2 2 3 1 1 7 6 5 5 4 4 7 7 5 2 3 2 2 4 2 3 5 2 2 7 7 3 2 1 2 5 4 4 3 1 2 3 3 3 4 3 1 4 4 1 4 4 3 5 10 12 16 19 19 20 19 18 17 17 19 20
13 13 13 13 12 10 8 7 6 5 5 5 5 5 1 5 3 1 2 4 2 1 2 3 1 2 2 2 2 2 2 3 5 6 4 4 3 3 5 7 7 4 3 3 3 4 5 4 4 4 2 7 9 6 4 2 3 6 4 4 5 3 3 4 4 4 3 2 2 1 1 1 3 1 4 10 14 17 21 22 22 22 20 18 18 17 18 19
14 14 14 14 13 11 9 8 8 6 7 8 5 2 4 5 2 1 3 3 3 3 1 3 2 2 3 3 2 2 4 4 5 5 4 4 3 3 3 4 6 6 4 4 3 3 6 6 2 2 1 6 6 4 0 3 0 3 1 2 3 3 3 3 4 4 2 3 3 2 2 4 1 4 8 11 14 17 18 18 19 19 17 17 17 16 17 18
16 16 16 16 15 13 11 10 9 9 11 9 4 4 7 4 2 2 1 2 3 4 3 0 2 3 4 3 4 6 5 3 2 2 2 3 4 6 5 2 2 5 5 4 3 1 3 3 1 2 2 2 1 2 2 1 0 1 2 2 3 2 2 2 5 3 2 3 5 4 4 5 1 4 7 8 10 11 10 12 14 14 14 15 15 14 15 15
18 18 19 20 18 15 14 13 11 12 13 9 4 6 4 3 7 6 3 3 2 2 3 3 3 3 4 3 4 6 3 1 2 2 1 2 3 5 7 2 3 2 1 2 1 2 1 2 2 2 0 1 1 3 3 2 2 3 2 2 2 1 1 1 2 2 3 5 5 5 7 6 4 2 3 7 8 8 6 7 10 11 12 13 13 12 12 11
18 18 19 21 20 17 16 16 15 16 13 7 8 10 4 4 10 10 7 6 4 2 3 5 3 3 5 5 4 2 3 1 3 4 1 3 3 1 3 1 3 4 4 4 1 2 2 2 3 1 1 1 0 2 3 4 3 3 2 0 1 0 1 0 1 2 4 6 4 5 8 7 4 3 4 6 7 7 6 6 6 7 9 10 10 9 8 7
14 12 14 17 18 17 17 18 18 19 13 6 9 9 5 7 13 16 14 8 5 5 5 6 5 4 6 7 5 1 5 4 4 3 2 3 4 1 4 2 1 2 5 4 1 2 2 2 2 1 1 1 1 1 1 3 3 2 2 1 1 3 3 2 1 2 4 5 4 5 7 4 3 1 4 7 7 7 7 5 5 5 9 9 7 6 5 4
8 5 7 11 11 13 18 19 20 18 10 7 9 8 6 6 10 18 19 10 4 5 5 5 6 7 7 8 8 4 4 5 5 3 2 3 3 2 5 4 1 2 4 4 1 1 1 2 3 1 1 1 0 2 4 2 1 1 1 2 2 1 2 1 2 3 4 5 5 5 6 3 2 3 5 8 7 7 7 6 5 7 10 8 6 6 4 3
7 3 6 9 8 13 21 19 15 13 7 7 9 9 9 7 4 6 11 9 7 6 5 4 5 6 5 6 7 5 4 4 5 4 3 4 4 1 3 4 3 2 2 2 1 0 0 1 2 2 2 2 3 2 1 2 1 3 3 2 2 0 1 3 5 4 3 4 4 5 7 3 1 1 4 7 5 6 8 8 7 9 11 8 6 6 5 3
9 3 4 8 10 19 25 15 9 9 5 8 10 8 9 8 5 4 6 6 6 5 5 3 4 4 3 4 4 3 3 3 3 3 2 3 4 1 2 2 3 2 2 1 0 2 2 1 1 4 5 6 8 8 6 5 3 4 4 3 3 3 2 3 5 4 2 2 1 3 5 2 1 1 4 6 6 7 10 11 11 12 11 9 7 5 4 3
10 5 3 7 15 26 21 7 7 8 6 10 11 10 10 7 4 4 6 6 5 5 5 4 6 6 5 5 4 4 4 3 3 4 3 3 1 3 4 3 3 2 1 1 1 2 3 1 2 4 5 6 9 9 6 4 1 2 1 1 1 1 1 2 3 1 2 3 4 5 6 3 1 2 1 6 9 8 8 9 11 12 10 7 6 4 3 3
7 7 4 5 17 27 16 5 7 8 8 10 9 10 13 11 8 7 6 8 7 5 4 4 7 8 7 6 6 5 5 3 5 6 4 3 1 6 7 6 4 2 2 1 1 1 0 1 1 1 3 4 6 5 3 4 4 1 1 3 2 3 4 3 1 1 2 5 6 5 4 3 2 2 2 3 7 5 4 6 7 8 7 7 6 5 5 4
5 6 4 6 19 26 16 8 5 5 8 10 9 10 11 11 14 14 10 9 10 7 4 4 6 6 5 4 2 2 2 1 1 2 0 1 0 4 7 7 6 4 4 4 3 2 1 1 1 2 3 5 5 4 1 2 2 1 2 4 5 5 5 4 3 3 3 3 2 3 5 5 3 4 4 3 4 3 3 5 7 7 8 9 7 6 5 4
4 4 3 5 16 24 22 16 8 4 4 8 8 10 11 9 11 15 13 11 12 11 7 5 4 2 2 4 2 2 4 3 3 2 1 2 1 2 5 8 8 7 6 6 5 4 1 1 2 4 5 6 7 6 2 0 2 4 6 8 8 8 7 4 3 5 5 4 5 7 9 9 9 8 7 3 4 4 6 9 11 11 10 9 7 5 5 4
3 3 4 6 10 15 17 17 14 7 4 6 5 6 11 11 7 10 13 10 10 12 8 7 6 4 3 5 4 5 6 5 5 6 5 3 1 2 4 6 7 6 5 4 3 3 1 2 4 6 7 7 8 9 8 7 6 8 9 11 11 10 8 7 7 6 4 5 8 10 11 10 10 11 10 7 5 5 6 10 12 11 10 9 6 4 4 4
5 4 5 8 6 7 9 12 14 12 8 7 4 4 9 11 9 8 9 7 7 9 6 5 9 9 8 7 5 4 6 6 6 5 5 3 2 2 2 3 4 5 4 2 2 3 2 4 5 5 6 9 10 10 9 9 8 8 10 11 12 13 12 10 9 6 5 7 10 10 12 13 11 11 11 10 7 2 5 7 6 6 7 7 5 4 5 6
8 7 6 5 4 5 9 12 13 13 13 8 4 5 8 8 9 7 5 4 5 7 7 6 7 7 7 7 7 5 5 4 4 3 1 1 2 2 2 1 1 4 3 2 1 2 2 3 3 3 5 9 10 10 8 8 9 10 11 12 13 15 15 11 10 9 9 10 11 11 13 14 12 12 11 7 1 4 6 4 2 3 5 6 5 3 3 4
7 6 4 4 4 4 5 9 11 10 10 9 7 8 7 6 9 7 2 3 3 5 8 9 5 1 1 1 3 4 3 3 4 2 2 2 1 2 1 0 1 3 2 1 1 2 1 1 0 1 3 7 9 7 5 5 6 7 10 13 14 14 13 11 11 10 9 10 12 13 14 14 10 7 4 1 5 6 4 2 2 3 4 4 2 1 3 4
9 8 4 3 4 4 3 5 8 6 6 8 8 8 7 7 10 6 1 1 2 2 4 6 4 3 3 3 2 1 3 6 6 3 3 4 2 1 1 0 2 3 1 1 0 1 1 1 1 2 3 7 7 3 0 2 3 5 12 17 17 14 12 12 11 9 10 11 12 12 12 9 4 1 3 5 6 5 3 3 4 4 4 3 1 3 5 6
10 11 8 3 3 5 5 4 5 6 6 7 8 9 9 9 9 8 4 1 2 2 3 7 8 4 2 2 2 2 5 7 6 5 4 4 3 1 2 3 2 3 3 2 1 1 2 2 1 1 4 7 4 3 4 4 3 7 11 13 13 11 12 12 11 12 14 12 10 9 8 5 3 3 3 3 4 3 2 4 4 3 2 2 5 7 7 7
Wind_Direction
261 265 265 268 271 268 271 272 271 273 275 274 278 282 279 277 283 283 284 288 288 293 297 302 307 310 313 314 319 319 321 322 318 314 311 316 311 280 272 306 321 331 330 308 290 278 269 289 261 240 255 262 260 239 247 248 232 239 238 224 249 248 256 325 333 323 341 334 334 327 326 325 324 331 298 253 256 263 281 283 283 280 270 272 279 274 271 277
258 257 258 260 260 263 266 268 271 273 273 275 277 278 277 278 282 281 284 288 287 292 295 298 303 305 308 311 314 316 318 319 314 313 314 319 329 143 108 360 343 329 324 314 302 259 205 264 239 227 235 245 245 225 233 234 209 218 237 245 248 252 280 309 311 312 331 322 317 314 318 327 326 323 309 275 271 280 287 285 289 289 281 282 281 270 267 273
261 260 260 261 262 265 266 268 270 272 275 276 276 277 278 279 281 282 285 287 288 292 293 295 298 300 303 305 309 313 317 317 316 316 321 73 111 87 4 340 348 335 318 308 283 189 205 257 240 223 236 245 237 212 210 209 198 217 224 247 250 260 287 299 307 312 314 311 312 309 317 324 310 304 294 278 278 275 270 276 287 289 287 294 298 292 280 273
264 266 267 268 269 270 270 272 272 274 277 277 278 279 279 281 281 283 285 286 288 289 291 293 294 296 299 302 306 311 318 318 312 266 188 134 108 351 318 315 328 336 319 288 250 201 227 251 236 235 246 255 251 230 202 198 199 211 208 228 266 285 302 298 304 308 309 313 315 310 313 309 300 297 287 281 284 261 255 268 277 282 287 295 300 304 300 288
265 267 269 271 272 274 275 276 277 278 279 279 281 281 282 282 282 284 284 286 287 288 291 291 293 296 297 301 304 310 322 324 224 163 176 162 306 313 306 299 307 318 297 265 238 209 227 238 236 245 245 260 264 249 222 216 214 226 244 251 265 279 285 284 293 301 310 315 306 300 297 296 301 296 284 277 268 258 266 275 278 280 286 291 293 296 295 292
269 271 271 272 272 274 275 277 279 279 280 280 281 282 283 283 284 285 286 287 288 290 291 292 295 296 298 301 302 308 315 289 283 293 259 277 300 304 299 291 295 299 254 227 222 216 229 228 227 237 236 245 258 252 251 241 226 222 252 257 268 278 281 285 292 298 306 309 295 287 285 291 297 290 284 275 264 271 275 277 280 281 284 288 291 292 290 287
272 273 272 273 273 274 275 276 277 278 280 281 282 283 284 285 287 288 288 290 290 292 293 293 295 294 298 300 299 305 276 263 283 283 277 289 296 297 295 290 285 259 216 219 214 207 228 227 225 240 248 247 252 253 262 267 255 239 249 264 276 279 279 284 289 291 293 292 283 281 283 283 281 287 289 280 272 277 278 278 278 280 282 283 286 288 287 285
273 272 272 273 273 275 275 276 278 279 280 282 284 285 286 288 289 290 291 292 292 293 293 293 294 294 297 297 300 301 258 267 283 281 282 288 288 290 291 279 260 229 217 224 212 208 231 236 240 250 256 255 262 271 285 292 274 254 258 271 279 277 278 287 293 290 286 283 278 274 271 271 275 285 286 282 281 282 281 281 279 281 282 279 279 283 284 282
276 276 276 277 277 278 277 279 279 281 282 284 286 286 288 290 290 292 291 292 292 292 293 294 293 294 295 294 297 286 263 272 280 278 280 281 276 277 274 265 253 236 232 225 211 217 236 243 255 270 292 287 284 289 297 298 256 254 280 299 305 300 293 293 291 287 283 278 275 266 256 266 277 288 283 278 282 287 286 281 278 282 282 278 277 280 282 281
280 280 280 280 281 281 281 282 282 284 285 286 287 287 289 290 290 291 290 291 291 290 292 292 292 293 293 293 278 255 276 273 269 273 276 278 277 271 266 264 257 249 243 229 217 223 241 252 267 291 310 302 295 287 285 280 265 284 318 319 306 297 290 284 278 276 273 269 266 260 253 266 274 284 277 277 283 287 287 284 283 281 276 275 279 283 283 280
278 279 280 280 280 281 281 282 284 285 286 287 288 287 288 289 289 290 290 291 290 291 292 290 292 289 290 290 245 242 275 266 262 274 276 281 282 272 265 263 262 258 240 228 227 228 237 252 265 281 295 298 297 285 279 279 280 302 338 322 293 285 281 275 271 268 265 262 257 249 248 271 275 258 252 273 287 286 280 277 279 280 275 276 280 283 283 279
275 276 276 277 277 278 280 281 283 285 286 288 288 289 291 291 292 293 292 292 292 292 291 291 290 287 290 282 257 260 276 267 264 272 275 280 280 273 268 263 258 250 232 222 227 233 235 243 253 256 263 288 314 295 289 305 308 311 322 303 282 279 273 268 263 258 258 248 227 202 111 262 257 244 252 270 285 285 280 276 279 283 280 279 279 281 281 280
273 274 274 276 276 277 280 281 283 286 288 289 291 293 295 295 297 296 296 296 295 294 294 292 289 288 285 273 272 280 281 270 265 266 270 273 273 272 270 265 255 246 237 225 223 231 234 237 246 251 261 279 291 285 299 306 301 288 266 256 275 285 273 269 264 246 248 206 161 133 101 246 246 262 268 280 290 295 295 291 290 286 282 281 281 281 281 282
273 275 276 276 277 278 280 282 286 288 290 292 293 295 298 300 301 301 302 301 300 298 297 293 291 288 274 270 285 287 279 272 263 261 266 265 267 271 272 271 262 249 238 233 232 234 237 240 248 257 263 267 268 279 300 300 285 269 265 250 250 278 265 273 273 190 172 151 143 127 245 243 261 272 284 304 310 310 303 296 291 284 282 282 283 285 286 287
274 276 277 276 277 279 280 284 286 288 292 293 296 299 301 304 305 306 306 304 304 301 299 296 291 285 272 278 287 284 273 263 257 261 260 256 261 271 276 276 268 255 240 238 241 241 244 249 251 255 260 258 256 271 290 281 267 253 267 267 227 245 250 279 286 153 168 189 151 135 242 242 243 272 297 303 298 297 294 292 286 281 280 282 287 292 294 296
275 275 275 278 280 281 283 284 286 289 293 295 299 303 304 307 308 307 303 302 300 298 298 294 287 277 266 278 280 277 271 254 258 265 250 246 252 259 278 292 286 266 246 243 246 246 248 249 244 239 250 257 237 243 268 273 270 232 233 257 249 253 259 285 301 163 169 147 172 186 229 250 241 261 273 275 276 275 274 276 275 277 280 286 292 296 298 300
274 273 273 278 280 282 283 283 285 287 289 293 296 299 305 309 309 305 300 297 294 291 290 279 278 281 265 268 273 270 268 260 257 247 234 233 234 248 284 297 289 279 253 246 244 236 236 226 214 230 234 241 250 257 279 264 253 243 235 250 258 274 291 302 342 267 192 142 218 231 235 254 248 252 265 272 279 275 267 268 272 280 287 291 293 297 303 309
268 267 268 270 272 277 279 281 283 283 287 293 297 302 308 312 309 301 293 286 284 284 281 255 231 270 261 259 275 274 266 256 242 235 239 242 253 271 277 264 274 264 180 219 221 189 197 207 195 236 238 217 244 236 231 239 241 267 269 276 284 284 299 296 294 309 305 279 274 272 267 277 282 288 294 291 287 278 272 275 281 283 284 288 291 302 325 1
261 262 263 265 267 271 275 282 287 287 291 297 309 314 314 321 313 302 294 279 269 267 278 231 202 241 288 290 293 277 267 263 258 264 266 265 268 266 243 218 203 185 167 171 190 177 177 190 179 216 245 217 223 213 219 238 244 263 267 272 282 280 289 287 278 286 291 284 283 284 286 299 309 310 296 284 278 273 275 283 286 281 277 281 293 339 33 52
255 258 260 265 268 273 276 284 292 295 298 304 327 333 332 342 326 317 339 292 267 265 275 269 252 261 278 288 291 276 271 275 271 269 274 271 235 197 192 174 175 195 210 188 169 177 178 183 195 201 221 228 230 228 235 248 254 265 273 274 283 290 282 280 283 284 289 290 282 288 296 305 309 301 284 278 276 277 280 280 274 273 276 287 352 50 62 67
253 256 261 267 268 272 271 278 286 293 308 312 345 2 351 349 334 314 327 301 281 272 267 268 266 263 266 273 277 274 272 280 276 264 265 220 150 160 172 168 172 203 222 207 155 143 177 198 227 217 222 233 241 250 258 268 274 279 286 291 296 289 277 278 282 282 293 305 288 299 299 299 298 286 277 278 280 279 272 266 268 284 351 38 55 64 71 72
252 254 261 266 265 267 266 272 275 280 307 316 349 8 330 329 321 300 312 297 285 280 267 266 266 261 260 262 262 264 262 265 259 239 234 198 166 177 176 174 195 212 208 198 133 108 199 231 238 233 234 242 252 261 268 272 276 284 292 300 292 274 281 279 272 291 356 11 302 304 298 297 288 276 273 278 277 270 269 275 12 54 60 58 60 66 70 67
253 259 267 270 270 273 272 277 276 276 302 313 331 333 305 321 319 306 307 282 285 290 275 264 259 252 253 249 247 253 250 248 245 231 229 202 180 196 194 187 218 230 209 186 174 194 202 221 238 239 238 244 253 256 263 271 269 261 257 268 271 272 287 273 279 344 355 315 290 294 291 281 275 270 270 267 255 260 295 60 69 72 71 66 66 68 70 68
255 264 275 278 275 274 273 283 288 292 312 322 327 312 311 323 321 321 314 269 275 287 269 251 244 243 241 228 233 244 236 236 242 219 206 189 181 195 210 214 222 236 229 209 213 230 237 256 271 272 243 240 258 265 263 273 277 261 242 241 257 268 273 277 325 350 332 306 297 310 305 257 259 285 299 265 246 247 73 75 73 75 77 75 73 70 69 69
258 263 272 274 267 264 271 289 293 314 343 328 322 316 319 325 325 334 326 271 255 264 258 242 229 234 230 223 225 226 218 221 213 174 172 180 188 178 207 221 217 231 236 229 229 238 253 270 274 256 236 247 263 268 258 247 268 271 252 242 258 284 295 310 342 352 336 302 284 19 352 252 263 322 317 280 259 285 78 80 78 79 82 80 76 72 70 70
263 260 264 264 261 267 283 288 277 294 345 306 302 316 324 327 329 337 335 278 256 229 226 214 201 208 207 214 202 182 183 201 198 186 177 189 195 183 207 203 198 237 252 251 249 248 251 288 63 169 212 224 234 259 256 222 235 258 242 239 285 344 331 323 344 358 310 265 259 10 332 260 267 285 271 263 255 98 83 81 83 87 87 83 79 76 73 71
260 258 255 256 259 267 274 270 257 268 278 253 267 306 321 328 337 345 348 271 261 166 128 147 167 193 193 193 180 173 191 167 174 197 199 203 194 198 239 154 161 232 196 30 2 268 215 148 74 68 193 202 214 251 239 187 193 237 221 334 10 9 321 317 326 255 243 277 277 232 211 256 270 244 249 254 232 103 91 85 85 89 87 82 78 76 77 76
258 254 252 255 258 259 263 261 258 258 242 237 276 303 324 332 344 357 342 286 283 118 121 143 153 200 195 183 184 188 298 156 150 201 199 196 178 185 236 224 269 258 153 149 195 224 171 162 159 161 170 207 214 237 221 175 183 227 164 43 35 37 304 292 267 254 266 301 282 209 181 235 278 256 249 243 161 99 98 97 87 85 84 82 79 75 75 78
255 252 252 254 253 249 250 256 256 251 247 271 300 309 327 336 2 18 263 276 334 82 122 142 139 190 174 153 192 212 241 180 186 193 182 187 181 179 249 258 307 321 181 188 210 256 343 147 181 173 172 216 217 247 289 171 187 196 145 38 37 221 242 241 237 255 287 279 261 223 181 190 282 272 257 208 115 116 114 102 91 80 77 78 81 79 73 72
250 249 246 239 234 231 234 247 252 252 265 291 302 310 328 34 53 18 219 228 344 42 119 148 127 160 176 187 199 200 208 183 120 137 156 182 191 203 280 305 325 331 252 232 246 259 249 116 136 211 219 219 146 73 24 64 132 153 51 354 316 255 227 211 211 212 294 264 257 237 195 178 278 286 262 78 116 138 131 121 112 87 76 74 74 78 78 73
240 236 226 216 217 225 232 241 243 241 237 252 301 253 144 112 103 224 224 231 321 131 125 150 138 154 194 226 205 185 198 175 145 152 163 155 179 210 266 303 46 12 313 297 268 262 240 145 187 227 232 217 108 82 28 55 66 78 55 21 336 297 232 139 169 120 224 249 269 267 188 179 212 279 277 56 82 122 138 139 127 98 84 80 75 77 80 79
229 223 221 223 227 225 222 223 213 190 152 125 132 110 62 159 220 220 204 47 331 190 143 142 151 173 211 236 225 187 198 181 168 178 201 171 167 198 210 204 160 101 283 242 277 295 216 204 212 207 230 208 145 62 334 30 67 109 114 91 352 319 323 246 212 165 226 235 266 9 77 179 218 259 274 12 57 69 92 103 106 102 91 85 81 81 82 81
225 226 231 236 233 224 214 208 190 164 135 122 119 78 50 231 229 208 182 202 234 147 93 45 119 198 215 229 232 185 180 197 172 187 217 184 183 211 205 209 205 212 257 245 305 307 273 232 193 150 265 203 173 166 207 244 173 161 163 152 154 237 268 255 243 229 242 240 277 37 50 297 249 266 297 66 71 67 73 82 92 96 94 91 89 86 85 83
233 233 233 232 229 222 210 204 194 168 146 138 114 77 95 227 246 360 203 222 253 188 140 78 76 249 229 243 266 170 184 243 183 180 200 178 192 229 211 215 217 218 245 261 275 237 250 279 187 165 208 178 179 205 202 126 161 188 188 158 167 200 226 244 256 249 250 268 304 13 76 242 237 192 94 93 90 82 82 88 92 93 95 98 97 93 89 85
239 236 233 230 226 219 207 203 199 176 163 155 124 111 215 223 223 261 254 264 285 276 157 106 110 266 255 241 260 220 207 224 197 185 195 195 219 239 224 231 224 210 197 223 248 196 226 260 199 133 114 151 176 247 242 73 114 221 146 127 206 211 207 255 268 248 252 299 291 246 220 253 216 115 104 99 93 87 90 95 95 96 102 102 97 93 91 87
243 241 239 238 233 227 218 209 198 183 175 159 141 222 222 226 219 208 277 291 277 297 321 223 173 240 262 239 224 222 204 194 202 190 201 222 252 254 245 257 226 212 193 195 255 248 217 248 85 59 7 116 138 348 32 91 99 37 83 187 233 203 136 271 277 267 265 277 268 247 257 275 234 118 102 94 90 88 90 93 94 99 104 100 95 94 94 91
248 247 248 246 242 239 231 218 204 190 179 162 195 233 217 218 229 236 286 320 317 325 300 261 192 208 254 255 234 218 184 129 199 182 209 222 243 247 231 232 34 353 4 76 278 284 295 268 225 186 302 359 45 22 353 262 165 113 169 234 292 357 69 174 256 275 267 260 256 248 263 273 258 218 119 100 95 95 95 93 95 97 96 94 96 100 99 90
252 255 256 253 247 240 228 219 207 192 178 177 230 237 234 224 223 227 241 247 245 231 230 237 222 228 252 261 272 203 128 123 199 182 198 221 227 210 190 192 25 13 14 44 78 316 360 292 256 194 133 229 126 42 346 270 216 147 170 218 83 94 287 224 198 218 238 256 252 238 254 262 254 235 142 126 119 117 121 115 110 108 107 107 110 111 103 91
260 264 265 260 250 234 219 211 199 187 181 202 233 233 236 239 236 237 237 235 228 218 224 236 231 244 255 256 275 202 159 190 214 193 164 201 228 101 87 69 42 43 32 51 116 336 10 253 261 30 107 128 63 72 208 258 279 44 40 344 148 178 214 201 212 223 228 255 263 253 258 258 277 325 112 127 131 131 133 130 132 136 133 137 141 137 126 112
254 251 262 257 245 220 202 193 186 184 191 217 226 228 232 240 242 237 233 227 205 205 222 240 232 239 253 251 257 251 197 202 220 223 204 222 257 30 49 33 69 94 47 50 48 355 16 236 250 297 91 109 151 204 179 191 280 80 58 292 269 243 258 253 254 234 229 253 261 259 258 243 304 352 96 119 128 139 146 145 152 156 157 167 179 179 186 172
205 210 250 235 222 193 178 173 183 192 204 225 226 229 232 239 244 215 212 214 217 218 224 241 241 242 255 254 251 247 230 228 232 233 228 233 251 298 40 26 29 64 44 27 12 80 18 278 275 300 304 241 246 245 123 83 104 128 134 236 251 27 318 281 258 229 213 235 243 258 262 243 260 341 99 115 123 131 141 147 155 166 173 183 185 181 190 187
182 202 238 209 195 179 168 166 200 205 210 229 227 228 227 232 231 185 175 193 214 229 233 241 246 242 247 261 270 270 257 251 233 232 228 223 248 277 100 64 31 52 73 14 165 108 84 83 231 273 268 257 269 282 289 291 256 168 164 199 190 139 145 237 253 261 265 249 243 262 255 232 174 349 89 111 122 122 136 149 153 158 166 173 175 173 171 165
188 194 201 197 181 172 168 180 218 207 225 235 233 236 232 227 216 199 193 189 193 209 222 234 238 235 239 250 261 268 261 243 223 237 252 245 275 51 72 66 43 40 36 290 225 96 76 129 208 255 266 270 276 275 284 314 303 182 218 249 198 177 221 228 228 267 291 248 252 260 252 244 262 286 99 124 131 132 148 159 155 153 159 172 182 183 191 198
201 200 215 221 178 171 178 221 207 204 228 232 234 237 235 237 232 223 216 204 203 210 213 222 229 229 234 241 242 242 243 239 238 240 237 234 206 67 56 42 49 45 26 20 219 152 146 246 177 227 280 285 282 275 310 20 35 52 309 308 318 332 333 324 251 209 210 218 231 244 249 243 216 242 256 144 136 139 159 165 161 164 180 202 206 208 220 225
194 195 201 210 182 182 203 236 220 225 223 218 232 233 231 240 235 234 236 224 220 224 227 238 240 238 240 243 251 255 240 214 230 260 255 150 124 62 48 42 62 78 67 70 73 91 163 260 154 175 238 247 256 262 204 95 41 339 281 287 299 302 299 307 306 270 257 247 249 253 261 269 254 230 234 193 155 163 187 187 193 200 205 206 204 210 218 221
203 202 167 181 190 200 222 237 243 275 227 213 229 228 224 235 235 230 230 231 229 224 231 253 250 255 251 235 237 252 245 213 185 243 332 114 136 62 63 63 77 92 88 72 59 69 110 261 213 208 234 246 260 274 273 51 321 296 292 287 283 279 273 271 261 259 277 307 288 261 263 278 281 275 269 225 177 202 210 203 205 203 197 195 195 204 207 208
198 226 184 173 196 215 232 238 233 235 244 236 232 220 222 228 235 221 209 211 222 217 226 245 231 217 210 217 228 237 241 235 215 230 235 198 132 70 84 81 90 110 114 98 79 89 134 247 235 228 240 250 262 277 289 299 286 273 277 276 274 275 266 249 246 259 299 299 270 265 272 278 278 280 289 297 282 252 212 198 197 191 187 188 188 195 213 231
200 276 222 179 184 216 222 224 221 222 238 253 257 253 236 226 225 220 198 191 211 210 212 231 229 230 227 221 229 231 231 239 234 231 229 198 138 112 116 75 95 136 132 108 109 117 140 247 251 248 256 260 266 272 276 282 281 275 273 272 274 273 264 257 254 247 245 252 257 268 275 276 275 278 286 293 292 250 160 164 172 173 179 186 191 207 230 249
225 281 269 209 206 229 216 209 207 216 231 241 253 260 252 236 230 226 183 168 209 208 205 224 230 229 234 235 235 233 233 235 231 231 210 94 110 143 155 49 108 161 138 94 185 168 161 251 257 267 274 268 265 267 268 272 274 274 271 267 266 264 263 266 264 251 244 251 263 273 276 275 276 282 290 292 249 131 128 142 164 173 176 178 186 220 260 279
231 274 288 263 262 268 242 212 194 202 225 228 235 243 245 250 246 238 177 169 197 192 204 223 224 143 38 288 216 224 216 154 158 169 111 98 94 122 154 267 156 163 144 88 257 250 232 220 213 21 297 274 269 268 264 262 266 273 275 267 260 263 270 271 267 264 262 263 265 269 271 274 277 285 297 138 127 116 114 133 150 141 135 130 133 311 314 309
243 261 285 325 270 223 217 211 192 196 218 216 226 236 230 234 241 245 296 202 190 172 194 195 163 106 68 70 92 194 151 131 142 157 141 149 167 95 73 76 111 125 155 148 182 282 257 237 323 350 270 269 276 272 144 12 343 296 271 263 258 259 263 261 259 258 258 261 265 266 265 266 266 118 122 117 98 80 74 65 55 70 91 79 352 307 301 302
246 254 250 294 294 218 191 188 198 206 216 213 217 226 228 234 238 240 247 176 128 106 118 137 134 121 119 142 139 139 133 131 136 144 146 156 177 212 235 238 197 167 175 166 167 203 172 178 257 231 245 270 277 113 95 50 348 274 259 255 253 251 250 252 254 251 250 252 257 260 256 241 191 141 143 113 78 65 43 36 35 31 18 322 287 280 288 296